STARLINK-36593, 67564

Orbit data source: Space-Track

STARLINK-36593, 67564 is a payload satellite owned by SpaceX/Seattle (US) in SSO that was launched on Sun, 25 Jan 2026 UTC via an FALCON 9 launch vehicle from the Air Force Western Test Range (AFWTR). Payload-class satellites include a variety of spacecraft equipped with specific instruments for various scientific and technological missions. These include communications satellites like Starlink; space stations such as the ISS; scientific satellites like the Hubble; Earth observation satellites from companies like Planet Labs, Umbra, and HawkEye 360; GPS; miniature CubeSats for education and research; and military/defense satellites.

Loading next visibility...
Identifier
67564, 2026-016D
Orbit
SSO
Country
Flag of USUS
Related business
Manufacturer
SpaceX/Seattle
Mission
Operational Commercial Communications
Bus & Motor
STARLINK V2MO, Unknown motor
Mass
575 kg wet, ~530 kg dry
Launch date (UTC)
2026-01-25 (5 months ago)
Launch vehicle
FALCON 9
Launch site
Air Force Western Test Range (AFWTR)
Object type
Payload
Rocket body
Debris
Shape & HBR
Box + 2 Pan, 17.7 m
Radar Cross Section
36.964 m², Large (>1 m²)

Expand to show TLE details & history
Last TLE update: 1 day ago

TLE from 1 day ago
0 STARLINK-36593
1 67564U 26016D   26170.72912073  .00014654  00000-0  45523-3 0  9992
2 67564  97.2827 230.7190 0000515 130.0971 230.0317 15.33453590 22502
Epoch: 2026-06-19T17:29Z
TLE epoch observation values (Epoch: 2026-06-19T17:29:56.031Z)
Latitude
0.00001°
Longitude
60.28162°
Altitude
468.856 km
Speed
7.632 km/s
True Right ascension
15h 22m 52s
True Declination
0° 00' 00"
Sunlit
Object was in full shadow at epoch
Visualization orbit readout
Latitude
Unknown
Longitude
Unknown
Altitude
Unknown
Speed
Unknown
Apparent Right ascension
Unknown
Apparent Declination
Unknown
Sunlit
N/A
Visualization observer readout
Local Sidereal Time
07:23:55
Azimuth
Unknown
Elevation
Unknown
Doppler factor
Unknown
Orbital elements
Apogee altitude
462.813 km
Perigee altitude
462.108 km
Semi-major axis
6,840.597 km
Eccentricity
0.00005
Inclination
97.2827°
RAAN
230.719°
Arg. of periapsis
130.0971°
True anomaly
230.02718°
Mean anomaly
230.0317°
Eccentric anomaly
230.02944°
Mean motion
3.83621 °/min
Orbital period
93.84 mins
BSTAR
0.00045523
Loading maneuver chart data...
Computing Atmospheric mass density...
Loading historical data...
Loading historical data...
Loading historical data...
Loading historical data...
Loading historical data...
Loading historical data...
Loading historical data...

Documentation

Showing up to 5 results
|